Danbury, CT

5:06 PM EST on December 04, 2016 (GMT -0500)
Danbury Municipal

Weather History for KDXR - February, 2013

Change the Weather History Date:

Saturday, February 2, 2013

  Actual Average Record
Temperature  
Mean Temperature 22 °F -  
Max Temperature 28 °F 36 °F 55 °F (1973)
Min Temperature 17 °F 18 °F -7 °F (1961)
Degree Days  
Heating Degree Days 42    
Moisture  
Dew Point 10 °F    
Average Humidity 63    
Maximum Humidity 92    
Minimum Humidity 33    
Precipitation  
Precipitation 0.01 in - - ()
Sea Level Pressure  
Sea Level Pressure 30.15 in    
Wind  
Wind Speed 7 mph (WSW)    
Max Wind Speed 16 mph    
Max Gust Speed 28 mph    
Visibility 7 miles    
Events Snow    
Averages and records for this station are not official NWS values.
T = Trace of Precipitation, MM = Missing Value Source: NWS Daily Summary

Daily Weather History Graph

Daily Weather History Graph

Search for Another Location

Airport or City:

Trip Planner

Search our weather history database for the weather conditions in past years. The results will help you decide how hot, cold, wet, or windy it might be!

Date:

Astronomy

Feb. 02, 2013 Rise Set
Actual Time 7:04 AM EST 5:11 PM EST
Civil Twilight 6:34 AM EST 5:40 PM EST
Nautical Twilight 6:01 AM EST 6:14 PM EST
Astronomical Twilight 5:29 AM EST 6:46 PM EST
Moon No Moon Rise 10:07 AM EST (2/2)
Length of Visible Light 11h 06m
Length of Day
10h 07m
Waning Gibbous, 60% of the Moon is Illuminated
Feb 2
Waning Gibbous
Feb 3
Last Quarter
Feb 10
New
Feb 17
First Quarter
Feb 25
Full

Hourly Weather History & Observations

Time (EST) Temp. Windchill Dew Point Humidity Pressure Visibility Wind Dir Wind Speed Gust Speed Precip Events Conditions
12:53 AM 21.0 °F 13.4 °F 8.1 °F 57% 30.19 in 10.0 mi WSW 5.8 mph - N/A   Clear
1:53 AM 19.9 °F 10.1 °F 7.0 °F 57% 30.21 in 10.0 mi West 8.1 mph - N/A   Clear
2:53 AM 19.9 °F 13.4 °F 8.1 °F 60% 30.23 in 10.0 mi West 4.6 mph - N/A   Clear
3:53 AM 19.9 °F 11.1 °F 9.0 °F 62% 30.23 in 10.0 mi WSW 6.9 mph - N/A   Clear
4:53 AM 19.0 °F 13.9 °F 8.1 °F 62% 30.25 in 10.0 mi West 3.5 mph - N/A   Clear
5:53 AM 17.1 °F 10.0 °F 7.0 °F 65% 30.25 in 10.0 mi WSW 4.6 mph - N/A   Clear
7:53 AM 18.0 °F 9.8 °F 7.0 °F 62% 30.27 in 10.0 mi SW 5.8 mph - N/A   Clear
8:53 AM 19.9 °F 9.3 °F 7.0 °F 57% 30.27 in 10.0 mi WSW 9.2 mph - N/A   Clear
9:53 AM 21.0 °F 13.4 °F 6.1 °F 53% 30.26 in 10.0 mi SW 5.8 mph - N/A   Clear
10:53 AM 23.0 °F 14.7 °F 6.1 °F 48% 30.24 in 10.0 mi West 6.9 mph - N/A   Clear
11:53 AM 26.1 °F 15.6 °F 3.9 °F 39% 30.20 in 10.0 mi South 11.5 mph - N/A   Clear
12:53 PM 27.0 °F 16.1 °F 3.0 °F 36% 30.16 in 10.0 mi SW 12.7 mph 26.5 mph N/A   Clear
1:53 PM 28.9 °F 17.7 °F 3.0 °F 33% 30.13 in 10.0 mi SSW 15.0 mph 23.0 mph N/A   Partly Cloudy
3:53 PM 27.0 °F 15.6 °F 1.9 °F 34% 30.09 in 10.0 mi WSW 13.8 mph 20.7 mph N/A   Overcast
4:53 PM 26.1 °F 13.6 °F 5.0 °F 41% 30.09 in 10.0 mi SW 16.1 mph 27.6 mph N/A   Overcast
5:53 PM 24.1 °F 15.2 °F 9.0 °F 53% 30.09 in 10.0 mi WSW 8.1 mph - N/A   Overcast
6:53 PM 24.1 °F 18.2 °F 10.9 °F 57% 30.09 in 10.0 mi WSW 4.6 mph - N/A   Overcast
7:53 PM 23.0 °F 13.1 °F 14.0 °F 68% 30.09 in 6.0 mi WSW 9.2 mph - N/A   Haze
8:16 PM 23.0 °F 15.8 °F 15.8 °F 74% 30.08 in 2.5 mi WSW 5.8 mph - 0.00 in Snow Light Snow
8:53 PM 21.9 °F 13.4 °F 18.0 °F 85% 30.10 in 2.5 mi West 6.9 mph - 0.00 in Snow Light Snow
9:05 PM 21.2 °F 14.9 °F 17.6 °F 86% 30.08 in 1.8 mi WSW 4.6 mph - 0.00 in Snow Light Snow
9:53 PM 21.9 °F 14.5 °F 18.0 °F 85% 30.09 in 1.8 mi WSW 5.8 mph - 0.00 in Snow Light Snow
10:45 PM 21.2 °F 16.4 °F 17.6 °F 86% 30.07 in 2.0 mi West 3.5 mph - 0.00 in Snow Light Snow
10:53 PM 21.0 °F - 19.0 °F 92% 30.09 in 2.0 mi Calm Calm - 0.00 in Snow Light Snow
11:28 PM 21.2 °F - 17.6 °F 86% 30.06 in 1.8 mi Calm Calm - 0.01 in Snow Light Snow
11:36 PM 21.2 °F - 17.6 °F 86% 30.06 in 2.0 mi Calm Calm - 0.01 in Snow Light Snow
11:53 PM 21.0 °F - 18.0 °F 88% 30.07 in 1.5 mi Calm Calm - 0.01 in Snow Light Snow